Lima, OH

6:50 PM EDT on August 28, 2016 (GMT -0400)
Lima Allen County

Weather History for KAOH - October, 2012

Change the Weather History Date:

Friday, October 26, 2012

  Actual Average (KFDY) Record (KFDY)
Temperature  
Mean Temperature 55 °F -  
Max Temperature 68 °F 57 °F 82 °F (1963)
Min Temperature 44 °F 39 °F 22 °F (1962)
Degree Days  
Heating Degree Days 10    
Growing Degree Days 5 (Base 50)    
Moisture  
Dew Point 44 °F    
Average Humidity 82    
Maximum Humidity 89    
Minimum Humidity 60    
Precipitation  
Precipitation 0.36 in - - ()
Sea Level Pressure  
Sea Level Pressure 30.13 in    
Wind  
Wind Speed 11 mph (NNW)    
Max Wind Speed 15 mph    
Max Gust Speed 24 mph    
Visibility 9 miles    
Events Rain    
Averages and records for this station are not official NWS values.
T = Trace of Precipitation, MM = Missing Value Source: NWS Daily Summary

Daily Weather History Graph

Daily Weather History Graph

Search for Another Location

Airport or City:

Trip Planner

Search our weather history database for the weather conditions in past years. The results will help you decide how hot, cold, wet, or windy it might be!

Date:

Astronomy

Oct. 26, 2012 Rise Set
Actual Time 8:00 AM EDT 6:39 PM EDT
Civil Twilight 7:31 AM EDT 7:07 PM EDT
Nautical Twilight 6:59 AM EDT 7:39 PM EDT
Astronomical Twilight 6:28 AM EDT 8:11 PM EDT
Moon 4:55 PM EDT (10/26) 4:54 AM EDT (10/26)
Length of Visible Light 11h 35m
Length of Day
10h 39m
Waxing Gibbous, 91% of the Moon is Illuminated
Oct 26
Waxing Gibbous
Oct 29
Full
Nov 6
Last Quarter
Nov 13
New
Nov 20
First Quarter

Hourly Weather History & Observations

Time (EDT) Temp. Windchill Dew Point Humidity Pressure Visibility Wind Dir Wind Speed Gust Speed Precip Events Conditions
12:53 AM 66.0 °F - 52.0 °F 60% 29.91 in 10.0 mi South 10.4 mph - N/A   Clear
1:53 AM 66.0 °F - 52.0 °F 60% 29.91 in 10.0 mi South 10.4 mph - N/A   Overcast
2:53 AM 66.9 °F - 53.1 °F 61% 29.92 in 10.0 mi SSW 11.5 mph - N/A   Overcast
3:53 AM 63.0 °F - 54.0 °F 72% 29.96 in 10.0 mi West 13.8 mph 23.0 mph N/A   Clear
4:17 AM 60.8 °F - 53.6 °F 77% 29.99 in 10.0 mi West 13.8 mph 24.2 mph N/A   Mostly Cloudy
4:53 AM 55.9 °F - 50.0 °F 80% 29.99 in 10.0 mi NW 15.0 mph - N/A   Overcast
5:53 AM 53.1 °F - 46.0 °F 77% 30.04 in 10.0 mi NW 13.8 mph 20.7 mph N/A   Overcast
6:26 AM 51.8 °F - 44.6 °F 76% 30.06 in 10.0 mi NW 12.7 mph - N/A   Overcast
6:53 AM 51.1 °F - 44.1 °F 77% 30.07 in 10.0 mi NW 10.4 mph 17.3 mph N/A   Overcast
7:53 AM 48.0 °F - 43.0 °F 83% 30.13 in 10.0 mi NW 12.7 mph 23.0 mph 0.01 in Rain Light Rain
8:03 AM 48.2 °F - 42.8 °F 82% 30.14 in 10.0 mi NW 13.8 mph 20.7 mph 0.00 in Rain Light Rain
8:23 AM 46.4 °F 40.4 °F 42.8 °F 87% 30.14 in 7.0 mi NW 13.8 mph - 0.00 in Rain Light Rain
9:53 AM 46.9 °F - 43.0 °F 86% 30.17 in 10.0 mi NNW 8.1 mph - 0.00 in Rain Light Rain
10:53 AM 46.9 °F - 43.0 °F 86% 30.19 in 9.0 mi North 9.2 mph 17.3 mph 0.01 in Rain Light Rain
10:58 AM 46.4 °F 41.5 °F 42.8 °F 87% 30.19 in 10.0 mi North 10.4 mph - 0.00 in Rain Light Rain
11:02 AM 46.4 °F 42.4 °F 42.8 °F 87% 30.18 in 10.0 mi North 8.1 mph - 0.00 in Rain Light Rain
11:16 AM 46.4 °F 41.9 °F 42.8 °F 87% 30.19 in 10.0 mi North 9.2 mph - 0.00 in   Overcast
11:53 AM 46.9 °F - 43.0 °F 86% 30.19 in 10.0 mi North 10.4 mph - 0.00 in   Overcast
12:53 PM 48.0 °F - 42.1 °F 80% 30.19 in 10.0 mi North 10.4 mph - 0.00 in   Overcast
1:53 PM 48.0 °F - 42.1 °F 80% 30.19 in 10.0 mi NNW 12.7 mph 19.6 mph 0.00 in Rain Light Rain
2:23 PM 46.4 °F 40.7 °F 42.8 °F 87% 30.18 in 10.0 mi NNW 12.7 mph 19.6 mph 0.01 in Rain Light Rain
2:32 PM 46.4 °F 42.4 °F 42.8 °F 87% 30.18 in 10.0 mi NNW 8.1 mph - 0.01 in Rain Light Rain
2:53 PM 46.9 °F - 42.1 °F 83% 30.18 in 8.0 mi North 10.4 mph - 0.02 in Rain Light Rain
3:53 PM 46.9 °F - 42.1 °F 83% 30.17 in 6.0 mi North 8.1 mph - 0.07 in Rain Light Rain
4:38 PM 46.4 °F 41.1 °F 42.8 °F 87% 30.15 in 9.0 mi North 11.5 mph 16.1 mph 0.02 in Rain Light Rain
4:53 PM 46.0 °F 42.5 °F 42.1 °F 86% 30.17 in 10.0 mi North 6.9 mph - 0.02 in Rain Light Rain
5:44 PM 44.6 °F 39.7 °F 41.0 °F 87% 30.17 in 8.0 mi North 9.2 mph - 0.02 in Rain Light Rain
5:53 PM 45.0 °F 40.1 °F 41.0 °F 86% 30.17 in 10.0 mi North 9.2 mph - 0.02 in Rain Light Rain
6:27 PM 44.6 °F 39.7 °F 41.0 °F 87% 30.19 in 10.0 mi NNW 9.2 mph - 0.01 in Rain Light Rain
6:53 PM 45.0 °F 40.6 °F 41.0 °F 86% 30.20 in 4.0 mi North 8.1 mph - 0.04 in Rain Light Rain
7:53 PM 44.1 °F 39.0 °F 41.0 °F 89% 30.20 in 6.0 mi NNE 9.2 mph - 0.07 in Rain Rain
8:53 PM 44.1 °F 38.6 °F 39.9 °F 85% 30.18 in 10.0 mi North 10.4 mph - 0.05 in Rain Light Rain
9:53 PM 44.1 °F 40.1 °F 39.9 °F 85% 30.19 in 8.0 mi North 6.9 mph - 0.01 in Rain Light Rain
10:53 PM 44.1 °F 38.6 °F 39.9 °F 85% 30.19 in 9.0 mi North 10.4 mph - 0.03 in Rain Light Rain
11:53 PM 44.1 °F 39.5 °F 39.9 °F 85% 30.18 in 7.0 mi North 8.1 mph - 0.01 in Rain Light Rain